Burlington, WA
on Tuesday, November 6, 2012

Tuesday
Previous Day Next Day
Daily Summary
 ActualAverage (KBLI)Record (KBLI)
Temperature
Mean Temperature °F 45°F  
Max Temperature 55°F 52°F 63°F (1999)
Min Temperature 46°F 39°F 18°F (2003)
Degree Days
Heating Degree Days 14 20  
Month to date heating degree days 115  
Cooling Degree Days 0 0  
Month to date cooling degree days 0  
Year to date cooling degree days 42  
Moisture
Dew Point 49°F   
Average Humidity 96    
Maximum Humidity 100    
Minimum Humidity 82    
Precipitation
Precipitation 0.01 in 0.19 in 1.78 in (2006)
Month to date precipitation 1.13  
Year to date precipitation 26.94  
Wind
Wind Speed 4 mph   
Max Wind Speed 16 mph   
Max Gust Speed 22 mph   
Visibility 8 miles   
Events     

Key: T is trace of precipitation, MM is missing value
Source: NWS Daily Summary
Time(PST)TemperatureDew PointHumidity Pressure Visibility Wind DirectionWind SpeedGust SpeedPrecipitationEvents Conditions
12:35 AM 46.4°F 46.4°F 100% 30.18 in 10.0 miles NE 4.6 mph - 0.00 in   Scattered Clouds
12:55 AM 48.2°F 48.2°F 100% 30.19 in 10.0 miles Calm Calm - 0.00 in   Scattered Clouds
1:35 AM 48.2°F 48.2°F 100% 30.16 in 10.0 miles Calm Calm - 0.00 in   Mostly Cloudy
1:55 AM 48.2°F 48.2°F 100% 30.16 in 8.0 miles NNE 5.8 mph - 0.00 in   Mostly Cloudy
2:15 AM 46.4°F 46.4°F 100% 30.15 in 7.0 miles North 3.5 mph - 0.00 in   Mostly Cloudy
2:35 AM 46.4°F 46.4°F 100% 30.14 in 6.0 miles North 3.5 mph - 0.00 in   Overcast
2:55 AM 46.4°F 46.4°F 100% 30.14 in 7.0 miles NNW 4.6 mph - 0.00 in   Mostly Cloudy
3:15 AM 46.4°F 46.4°F 100% 30.13 in 7.0 miles NW 3.5 mph - 0.00 in   Overcast
3:35 AM 46.4°F 46.4°F 100% 30.11 in 8.0 miles Calm Calm - 0.00 in   Overcast
4:15 AM 48.2°F 48.2°F 100% 30.10 in 7.0 miles NW 3.5 mph - 0.00 in   Mostly Cloudy
4:35 AM 46.4°F 46.4°F 100% 30.10 in 5.0 miles NNW 3.5 mph - 0.00 in   Scattered Clouds
4:55 AM 46.4°F 46.4°F 100% 30.09 in 5.0 miles WNW 5.8 mph - 0.00 in   Mostly Cloudy
5:15 AM 46.4°F 46.4°F 100% 30.09 in 4.0 miles NNW 4.6 mph - 0.00 in   Mostly Cloudy
5:35 AM 48.2°F 48.2°F 100% 30.09 in 7.0 miles NW 4.6 mph - 0.00 in   Mostly Cloudy
6:15 AM 46.4°F 46.4°F 100% 30.07 in 3.0 miles Calm Calm - 0.00 in   Scattered Clouds
6:35 AM 46.4°F 46.4°F 100% 30.06 in 3.0 miles Calm Calm - 0.00 in   Mostly Cloudy
6:55 AM 46.4°F 46.4°F 100% 30.06 in 5.0 miles Calm Calm - 0.00 in   Mostly Cloudy
7:15 AM 46.4°F 46.4°F 100% 30.04 in 1.8 miles Calm Calm - 0.00 in   Mostly Cloudy
7:35 AM 46.4°F 46.4°F 100% 30.05 in 2.5 miles Calm Calm - 0.00 in   Mostly Cloudy
7:55 AM 46.4°F 46.4°F 100% 30.05 in 1.0 miles Calm Calm - 0.00 in   Mostly Cloudy
8:15 AM 46.4°F 46.4°F 100% 30.05 in 2.5 miles Calm Calm - 0.00 in   Mostly Cloudy
8:35 AM 46.4°F 46.4°F 100% 30.04 in 3.0 miles Calm Calm - 0.00 in   Mostly Cloudy
8:55 AM 48.2°F 48.2°F 100% 30.03 in 8.0 miles ENE 3.5 mph - 0.00 in   Mostly Cloudy
9:35 AM 48.2°F 48.2°F 100% 30.03 in 7.0 miles SSW 4.6 mph - 0.00 in   Mostly Cloudy
9:55 AM 48.2°F 48.2°F 100% 30.01 in 6.0 miles SE 3.5 mph - 0.00 in   Mostly Cloudy
10:15 AM 48.2°F 48.2°F 100% 30.00 in 7.0 miles ESE 3.5 mph - 0.00 in   Mostly Cloudy
10:35 AM 48.2°F 48.2°F 100% 30.01 in 7.0 miles West 3.5 mph - 0.00 in   Mostly Cloudy
10:55 AM 48.2°F 48.2°F 100% 30.00 in 7.0 miles WNW 5.8 mph - 0.00 in   Mostly Cloudy
11:15 AM 48.2°F 48.2°F 100% 30.00 in 9.0 miles Calm Calm - 0.00 in   Overcast
11:35 AM 50.0°F 48.2°F 94% 29.99 in 8.0 miles Calm Calm - 0.00 in   Mostly Cloudy
11:55 AM 50.0°F 48.2°F 94% 29.97 in 2.5 miles SSE 3.5 mph - 0.00 in   Mostly Cloudy
12:35 PM 51.8°F 48.2°F 88% 29.98 in 9.0 miles SW 8.1 mph - 0.00 in   Mostly Cloudy
1:15 PM 50.0°F 48.2°F 94% 29.99 in 9.0 miles WNW 3.5 mph - 0.00 in   Overcast
2:35 PM 50.0°F 50.0°F 100% 29.91 in 5.0 miles East 16.1 mph 21.9 mph 0.01 in   Mostly Cloudy
2:55 PM 50.0°F 50.0°F 100% 29.92 in 9.0 miles Calm Calm - 0.01 in   Partly Cloudy
3:15 PM 50.0°F 50.0°F 100% 29.93 in 6.0 miles SSE 5.8 mph - 0.00 in   Scattered Clouds
3:35 PM 51.8°F 51.8°F 100% 29.92 in 8.0 miles SSW 6.9 mph - 0.00 in   Mostly Cloudy
3:55 PM 51.8°F 51.8°F 100% 29.92 in 8.0 miles SSW 3.5 mph - 0.00 in   Overcast
4:15 PM 51.8°F 51.8°F 100% 29.93 in 7.0 miles Calm Calm - 0.00 in   Overcast
4:35 PM 53.6°F 53.6°F 100% 29.92 in 8.0 miles SE 11.5 mph 16.1 mph 0.00 in   Overcast
4:55 PM 55.4°F 51.8°F 88% 29.91 in 10.0 miles SE 12.7 mph - 0.00 in   Overcast
5:15 PM 55.4°F 51.8°F 88% 29.91 in 10.0 miles SE 10.4 mph - 0.00 in   Overcast
5:35 PM 55.4°F 53.6°F 94% 29.92 in 10.0 miles SSE 12.7 mph 18.4 mph 0.00 in   Overcast
5:55 PM 55.4°F 53.6°F 94% 29.92 in 10.0 miles SE 6.9 mph - 0.00 in   Overcast
6:15 PM 55.4°F 53.6°F 94% 29.93 in 10.0 miles SSE 8.1 mph - 0.00 in   Overcast
6:35 PM 55.4°F 53.6°F 94% 29.93 in 10.0 miles SSE 5.8 mph - 0.00 in   Mostly Cloudy
6:55 PM 53.6°F 51.8°F 94% 29.94 in 10.0 miles South 8.1 mph - 0.00 in   Partly Cloudy
7:15 PM 55.4°F 51.8°F 88% 29.96 in 10.0 miles South 9.2 mph - 0.00 in   Mostly Cloudy
7:35 PM 53.6°F 51.8°F 94% 29.98 in 10.0 miles SW 11.5 mph - 0.00 in   Overcast
7:55 PM 55.4°F 51.8°F 88% 29.98 in 10.0 miles SSW 5.8 mph - 0.00 in   Overcast
8:15 PM 53.6°F 48.2°F 82% 29.98 in 10.0 miles SSW 8.1 mph - 0.00 in   Mostly Cloudy
8:35 PM 53.6°F 50.0°F 88% 29.99 in 10.0 miles South 3.5 mph - 0.00 in   Mostly Cloudy
8:55 PM 51.8°F 48.2°F 88% 29.99 in 10.0 miles SW 6.9 mph - 0.00 in   Mostly Cloudy
9:15 PM 51.8°F 48.2°F 88% 30.00 in 10.0 miles SW 6.9 mph - 0.00 in   Scattered Clouds
9:35 PM 51.8°F 48.2°F 88% 30.01 in 10.0 miles SW 5.8 mph - 0.00 in   Scattered Clouds
9:55 PM 50.0°F 48.2°F 94% 30.01 in 10.0 miles SW 9.2 mph - 0.00 in   Mostly Cloudy
10:15 PM 51.8°F 48.2°F 88% 30.01 in 10.0 miles SW 3.5 mph - 0.00 in   Overcast
10:35 PM 51.8°F 48.2°F 88% 30.01 in 10.0 miles South 4.6 mph - 0.00 in   Overcast
10:55 PM 51.8°F 48.2°F 88% 30.01 in 10.0 miles Calm Calm - 0.00 in   Overcast
11:15 PM 51.8°F 46.4°F 82% 30.01 in 9.0 miles South 4.6 mph - 0.00 in   Overcast
11:35 PM 50.0°F 46.4°F 87% 30.02 in 10.0 miles SW 3.5 mph - 0.00 in   Overcast
11:55 PM 50.0°F 46.4°F 87% 30.03 in 10.0 miles SSE 4.6 mph - 0.00 in   Overcast
Moon Phase
Nov. 06 Nov. 06 Nov. 13 Nov. 20 Nov. 28
Sunrise:07:04 AM (PST) Moon Rise:11:33 PM (PST)11/6
Sunset:04:41 PM (PST) Moon Set:12:54 PM (PST)11/6

Copyright © 2014 The Weather Underground, Inc.